| time (UTC) | temp F | wind direction | speed MPH | gust MPH | rain 1hr in | rain 24hr in | rain mn in | humidity % | barometer mb |
| 20260505100003 | 47 | 280 | 1.0 | 1.0 | 0.00 | 0.00 | 0.00 | 98 | 1014.2 |
| 20260505095403 | 47 | 280 | 0.0 | 1.0 | 0.00 | 0.00 | 0.00 | 98 | 1014.2 |
| 20260505094503 | 47 | 280 | 1.0 | 2.0 | 0.00 | 0.00 | 0.00 | 98 | 1014.1 |
| 20260505093603 | 48 | 280 | 1.0 | 1.0 | 0.00 | 0.00 | 0.00 | 98 | 1014.1 |
| 20260505092703 | 48 | 32 | 1.0 | 2.0 | 0.00 | 0.00 | 0.00 | 98 | 1014.1 |
| 20260505091803 | 48 | 46 | 0.0 | 1.0 | 0.00 | 0.00 | 0.00 | 98 | 1014.1 |
| 20260505090903 | 48 | 46 | 0.0 | 1.0 | 0.00 | 0.00 | 0.00 | 97 | 1013.9 |
| 20260505090003 | 49 | 46 | 1.0 | 1.0 | 0.00 | 0.00 | 0.00 | 97 | 1013.8 |
| 20260505085403 | 49 | 46 | 0.0 | 1.0 | 0.00 | 0.00 | 0.00 | 97 | 1013.8 |
| 20260505084503 | 50 | 0 | 0.0 | 0.0 | 0.00 | 0.00 | 0.00 | 96 | 1013.8 |
| 20260505083603 | 50 | 46 | 0.0 | 1.0 | 0.00 | 0.00 | 0.00 | 96 | 1013.8 |
| 20260505082703 | 50 | 46 | 0.0 | 1.0 | 0.00 | 0.00 | 0.00 | 96 | 1013.9 |
| 20260505081803 | 51 | 46 | 0.0 | 1.0 | 0.00 | 0.00 | 0.00 | 95 | 1013.7 |
| 20260505080903 | 51 | 0 | 0.0 | 0.0 | 0.00 | 0.00 | 0.00 | 96 | 1013.7 |
| 20260505080003 | 51 | 46 | 0.0 | 1.0 | 0.00 | 0.00 | 0.00 | 96 | 1013.6 |
| 20260505075403 | 52 | 61 | 1.0 | 2.0 | 0.00 | 0.00 | 0.00 | 95 | 1013.5 |
| 20260505074524 | 52 | 83 | 1.0 | 3.0 | 0.00 | 0.00 | 0.00 | 95 | 1013.5 |
| 20260505073603 | 52 | 90 | 1.0 | 2.0 | 0.00 | 0.00 | 0.00 | 95 | 1013.4 |
| 20260505072703 | 52 | 99 | 2.0 | 3.0 | 0.00 | 0.00 | 0.00 | 95 | 1013.3 |
| 20260505071803 | 52 | 107 | 0.0 | 2.0 | 0.00 | 0.00 | 0.00 | 95 | 1013.2 |
| 20260505070903 | 52 | 98 | 1.0 | 2.0 | 0.00 | 0.00 | 0.00 | 95 | 1013.2 |
| 20260505070005 | 52 | 130 | 0.0 | 2.0 | 0.00 | 0.00 | 0.00 | 95 | 1013.1 |
| 20260505065424 | 52 | 350 | 0.0 | 1.0 | 0.00 | 0.00 | 0.00 | 95 | 1013.0 |
| 20260505064503 | 53 | 247 | 0.0 | 2.0 | 0.00 | 0.00 | 0.00 | 95 | 1012.9 |
| 20260505063603 | 53 | 196 | 0.0 | 2.0 | 0.00 | 0.00 | 0.00 | 95 | 1012.9 |
| 20260505062703 | 53 | 196 | 0.0 | 1.0 | 0.00 | 0.00 | 0.00 | 94 | 1012.6 |
| 20260505061803 | 53 | 212 | 1.0 | 6.0 | 0.00 | 0.00 | 0.00 | 95 | 1012.6 |
| 20260505060903 | 53 | 205 | 1.0 | 3.0 | 0.00 | 0.00 | 0.00 | 96 | 1012.6 |
| 20260505060003 | 53 | 276 | 0.0 | 1.0 | 0.00 | 0.00 | 0.00 | 95 | 1012.6 |
| 20260505055403 | 54 | 276 | 0.0 | 1.0 | 0.00 | 0.00 | 0.00 | 94 | 1012.4 |
| 20260505054503 | 54 | 0 | 0.0 | 0.0 | 0.00 | 0.00 | 0.00 | 94 | 1012.4 |
| 20260505053603 | 54 | 0 | 0.0 | 0.0 | 0.00 | 0.00 | 0.00 | 94 | 1012.3 |
| 20260505052724 | 55 | 276 | 0.0 | 1.0 | 0.00 | 0.00 | 0.00 | 93 | 1012.3 |
| 20260505051803 | 55 | 276 | 0.0 | 1.0 | 0.00 | 0.00 | 0.00 | 94 | 1012.3 |
| 20260505050903 | 56 | 276 | 1.0 | 2.0 | 0.00 | 0.00 | 0.00 | 93 | 1012.1 |
| 20260505040903 | 59 | 236 | 0.0 | 1.0 | 0.00 | 0.00 | 0.00 | 86 | 1011.3 |
| 20260505040004 | 60 | 0 | 0.0 | 0.0 | 0.00 | 0.00 | 0.00 | 84 | 1011.2 |
| 20260505035403 | 61 | 236 | 0.0 | 1.0 | 0.00 | 0.00 | 0.00 | 83 | 1011.1 |
| 20260505034503 | 62 | 236 | 0.0 | 1.0 | 0.00 | 0.00 | 0.00 | 82 | 1010.9 |
| 20260505033603 | 62 | 235 | 2.0 | 3.0 | 0.00 | 0.00 | 0.00 | 80 | 1010.8 |
| 20260505032703 | 63 | 242 | 1.0 | 3.0 | 0.00 | 0.00 | 0.00 | 78 | 1010.7 |
| 20260505031803 | 64 | 123 | 2.0 | 4.0 | 0.00 | 0.00 | 0.00 | 78 | 1010.6 |
| 20260505030903 | 64 | 117 | 1.0 | 2.0 | 0.00 | 0.00 | 0.00 | 78 | 1010.5 |
| 20260505030003 | 66 | 216 | 0.0 | 2.0 | 0.00 | 0.00 | 0.00 | 75 | 1010.3 |
| 20260505025403 | 66 | 239 | 1.0 | 3.0 | 0.00 | 0.00 | 0.00 | 73 | 1010.3 |
| 20260505024503 | 67 | 186 | 2.0 | 7.0 | 0.00 | 0.00 | 0.00 | 72 | 1010.2 |
| 20260505023603 | 68 | 92 | 2.0 | 7.0 | 0.00 | 0.00 | 0.00 | 71 | 1010.1 |
| 20260505022703 | 69 | 207 | 1.0 | 4.0 | 0.00 | 0.00 | 0.00 | 70 | 1010.1 |
| 20260505021824 | 70 | 243 | 1.0 | 5.0 | 0.00 | 0.00 | 0.00 | 68 | 1010.0 |
| 20260505020903 | 71 | 250 | 2.0 | 7.0 | 0.00 | 0.00 | 0.00 | 66 | 1010.0 |
| 20260505020003 | 72 | 229 | 3.0 | 7.0 | 0.00 | 0.00 | 0.00 | 65 | 1010.0 |
| 20260505015403 | 73 | 227 | 2.0 | 5.0 | 0.00 | 0.00 | 0.00 | 66 | 1009.9 |
| 20260505014503 | 73 | 210 | 2.0 | 6.0 | 0.00 | 0.00 | 0.00 | 64 | 1009.9 |
| 20260505013603 | 74 | 245 | 3.0 | 8.0 | 0.00 | 0.00 | 0.00 | 63 | 1010.0 |
| 20260505012703 | 74 | 281 | 1.0 | 4.0 | 0.00 | 0.00 | 0.00 | 65 | 1010.0 |
| 20260505011803 | 75 | 251 | 5.0 | 10.0 | 0.00 | 0.00 | 0.00 | 63 | 1010.2 |
| 20260505010903 | 75 | 244 | 3.0 | 8.0 | 0.00 | 0.00 | 0.00 | 64 | 1010.2 |
| 20260505010004 | 75 | 264 | 4.0 | 10.0 | 0.00 | 0.00 | 0.00 | 67 | 1010.1 |
| 20260505005403 | 75 | 252 | 4.0 | 9.0 | 0.00 | 0.00 | 0.00 | 64 | 1010.2 |
| 20260505004503 | 75 | 267 | 5.0 | 9.0 | 0.00 | 0.00 | 0.00 | 66 | 1010.2 |
| 20260505003603 | 75 | 267 | 5.0 | 9.0 | 0.00 | 0.00 | 0.00 | 66 | 1010.3 |
| 20260505002703 | 75 | 267 | 4.0 | 9.0 | 0.00 | 0.00 | 0.00 | 67 | 1010.4 |
| 20260505001803 | 75 | 271 | 6.0 | 11.0 | 0.00 | 0.00 | 0.00 | 67 | 1010.3 |
| 20260505000903 | 75 | 233 | 4.0 | 8.0 | 0.00 | 0.00 | 0.00 | 65 | 1010.3 |
| 20260505000003 | 75 | 158 | 2.0 | 8.0 | 0.00 | 0.00 | 0.00 | 65 | 1010.4 |
| 20260504235403 | 75 | 270 | 5.0 | 9.0 | 0.00 | 0.00 | 0.00 | 67 | 1010.5 |
| 20260504234503 | 75 | 274 | 8.0 | 12.0 | 0.00 | 0.00 | 0.00 | 66 | 1010.6 |
| 20260504233603 | 74 | 272 | 5.0 | 12.0 | 0.00 | 0.00 | 0.00 | 69 | 1010.7 |
| 20260504232703 | 74 | 178 | 4.0 | 9.0 | 0.00 | 0.00 | 0.00 | 70 | 1010.7 |
| 20260504231803 | 73 | 101 | 3.0 | 7.0 | 0.00 | 0.00 | 0.00 | 69 | 1010.9 |
| 20260504230903 | 73 | 231 | 4.0 | 8.0 | 0.00 | 0.00 | 0.00 | 69 | 1010.9 |
| 20260504230003 | 73 | 99 | 4.0 | 9.0 | 0.00 | 0.00 | 0.00 | 70 | 1010.9 |
| 20260504225403 | 72 | 112 | 3.0 | 8.0 | 0.00 | 0.00 | 0.00 | 72 | 1011.1 |
| 20260504224503 | 72 | 87 | 5.0 | 10.0 | 0.00 | 0.00 | 0.00 | 72 | 1011.2 |
| 20260504223603 | 72 | 106 | 5.0 | 11.0 | 0.00 | 0.00 | 0.00 | 69 | 1011.2 |
| 20260504222703 | 72 | 260 | 3.0 | 9.0 | 0.00 | 0.00 | 0.00 | 70 | 1011.4 |
| 20260504221803 | 71 | 109 | 4.0 | 10.0 | 0.00 | 0.00 | 0.00 | 72 | 1011.5 |
| 20260504220903 | 71 | 109 | 4.0 | 9.0 | 0.00 | 0.00 | 0.00 | 71 | 1011.5 |
| 20260504220024 | 70 | 111 | 3.0 | 6.0 | 0.00 | 0.00 | 0.00 | 71 | 1011.6 |
| 20260504215403 | 70 | 96 | 4.0 | 11.0 | 0.00 | 0.00 | 0.00 | 74 | 1011.8 |
| 20260504214503 | 70 | 110 | 4.0 | 10.0 | 0.00 | 0.00 | 0.00 | 73 | 1011.8 |
| 20260504213603 | 70 | 105 | 5.0 | 9.0 | 0.00 | 0.00 | 0.00 | 75 | 1011.9 |
| 20260504212703 | 69 | 112 | 5.0 | 9.0 | 0.00 | 0.00 | 0.00 | 75 | 1012.0 |
| 20260504211803 | 69 | 169 | 3.0 | 8.0 | 0.00 | 0.00 | 0.00 | 74 | 1012.0 |
| 20260504210903 | 68 | 168 | 2.0 | 5.0 | 0.00 | 0.00 | 0.00 | 74 | 1012.3 |
| 20260504210004 | 68 | 89 | 5.0 | 10.0 | 0.00 | 0.00 | 0.00 | 75 | 1012.4 |
| 20260504205403 | 67 | 113 | 5.0 | 10.0 | 0.00 | 0.00 | 0.00 | 76 | 1012.5 |
| 20260504204503 | 67 | 127 | 3.0 | 8.0 | 0.00 | 0.00 | 0.00 | 78 | 1012.6 |
| 20260504203603 | 66 | 98 | 4.0 | 7.0 | 0.00 | 0.00 | 0.00 | 78 | 1012.7 |
| 20260504202724 | 66 | 106 | 3.0 | 8.0 | 0.00 | 0.00 | 0.00 | 78 | 1012.8 |
| 20260504201803 | 66 | 121 | 4.0 | 8.0 | 0.00 | 0.00 | 0.00 | 77 | 1013.0 |
| 20260504200903 | 65 | 145 | 3.0 | 6.0 | 0.00 | 0.00 | 0.00 | 79 | 1013.0 |
| 20260504200003 | 65 | 100 | 4.0 | 9.0 | 0.00 | 0.00 | 0.00 | 80 | 1013.0 |
| 20260504195403 | 65 | 85 | 3.0 | 9.0 | 0.00 | 0.00 | 0.00 | 78 | 1013.0 |
| 20260504194503 | 65 | 226 | 3.0 | 6.0 | 0.00 | 0.00 | 0.00 | 77 | 1013.0 |
| 20260504193603 | 64 | 93 | 2.0 | 4.0 | 0.00 | 0.00 | 0.00 | 82 | 1013.1 |
| 20260504192703 | 64 | 165 | 3.0 | 8.0 | 0.00 | 0.00 | 0.00 | 78 | 1013.1 |
| 20260504191803 | 63 | 79 | 4.0 | 9.0 | 0.00 | 0.00 | 0.00 | 83 | 1013.2 |
| 20260504190903 | 63 | 285 | 3.0 | 9.0 | 0.00 | 0.00 | 0.00 | 81 | 1013.4 |
| 20260504190003 | 62 | 181 | 2.0 | 5.0 | 0.00 | 0.00 | 0.00 | 85 | 1013.4 |
| 20260504185403 | 62 | 180 | 2.0 | 5.0 | 0.00 | 0.00 | 0.00 | 81 | 1013.5 |
| 20260504184503 | 61 | 176 | 2.0 | 5.0 | 0.00 | 0.00 | 0.00 | 82 | 1013.5 |
| 20260504183603 | 60 | 95 | 3.0 | 6.0 | 0.00 | 0.00 | 0.00 | 84 | 1013.5 |
| 20260504182703 | 60 | 236 | 4.0 | 8.0 | 0.00 | 0.00 | 0.00 | 84 | 1013.6 |
| 20260504181803 | 59 | 243 | 2.0 | 5.0 | 0.00 | 0.00 | 0.00 | 86 | 1013.6 |
| 20260504180903 | 59 | 139 | 2.0 | 7.0 | 0.00 | 0.00 | 0.00 | 87 | 1013.6 |
| 20260504180003 | 58 | 59 | 3.0 | 6.0 | 0.00 | 0.00 | 0.00 | 87 | 1013.6 |
| 20260504175403 | 58 | 232 | 2.0 | 3.0 | 0.00 | 0.00 | 0.00 | 86 | 1013.5 |
| 20260504174503 | 58 | 133 | 2.0 | 5.0 | 0.00 | 0.00 | 0.00 | 87 | 1013.5 |
| 20260504173604 | 58 | 184 | 1.0 | 3.0 | 0.00 | 0.00 | 0.00 | 87 | 1013.5 |
| 20260504172703 | 58 | 111 | 2.0 | 6.0 | 0.00 | 0.00 | 0.00 | 87 | 1013.6 |
| 20260504171803 | 58 | 89 | 6.0 | 12.0 | 0.00 | 0.00 | 0.00 | 88 | 1013.5 |
| 20260504170903 | 57 | 239 | 2.0 | 4.0 | 0.00 | 0.00 | 0.00 | 88 | 1013.5 |
| 20260504150903 | 55 | 112 | 2.0 | 6.0 | 0.00 | 0.00 | 0.00 | 94 | 1013.1 |
| 20260504140903 | 53 | 61 | 2.0 | 4.0 | 0.00 | 0.00 | 0.00 | 97 | 1012.4 |